User: anonymous   Login
Location: Unspecified
(0.0000°N, 0.0000°E)
Time: 15:52:31
(UTC+00:00)
Language:

NOAA 1 - Orbit

View from above orbital plane
View from above orbital plane
View from above satellite
View from above satellite

Ground track
Ground track

The orbit data is extracted from the following two-line orbital elements,

1  4793U 70106A   19015.78735727 -.00000050 +00000-0 -31596-4 0  9994
2  4793 101.7260 086.2347 0031826 223.0492 246.3911 12.53988305201074
Epoch (UTC): 15 January 2019 18:53:47
Eccentricity: 0.0031826
inclination: 101.7260°
perigee height: 1423 km
apogee height: 1473 km
right ascension of ascending node: 86.2347°
argument of perigee: 223.0492°
revolutions per day: 12.53988305
mean anomaly at epoch: 246.3911°
orbit number at epoch: 20107

The dashed part of the orbit path shows where the satellite is in the earth's shadow,  

DLR